Location: Peterborough
(44.3091°N, 78.3197°W)
Time: 04:29:33
(UTC-04:00)

Tiros 1 - Pass Details

Date: 10 April 2023
Orbit: 627 x 661 km, 48.4° (Epoch: 09 June)

Event Time Altitude Azimuth Distance (km) Brightness Sun altitude
Rises 00:53:21 0° 237° (WSW) 2,940 - -37.6°
Reaches altitude 10° 00:55:41 10° 235° (SW) 2,038 - -37.7°
Maximum altitude 01:00:21 71° 152° (SSE) 690 - -37.7°
Drops below altitude 10° 01:05:06 10° 69° (ENE) 2,067 - -37.8°
Sets 01:07:28 0° 67° (ENE) 2,984 - -37.8°
